Flag Weather past 2 weeks in Traralgon, Victoria, Australia

Now
75 °F

Mild.


Feels Like: 77 °F
Forecast: 54 / 84 °F
Wind: 7 mph from Southwest

Location: Latrobe Valley Airport

Current Time: Nov 23, 2014 at 1:19:48 PM

Latest Report: Nov 23, 2014 at 12:00 PM


Visibility: N/A

Pressure: 29.87 "Hg

Humidity: 57%

Dew point: 58 °F

Location of TraralgonLocation

Historic Weather in Traralgon — Graph

°F

Traralgon temperature yesterday

Maximum temperature yesterday: 84 °F (at 6:00 PM)
Minimum temperature yesterday: 48 °F (at 6:00 AM)
Average temperature yesterday: 67 °F

Past Weeks' High & Low Weather Summary

 TemperatureHumidityPressure
High91 °F (Nov 8, 3:00 PM)100% (Nov 12, 6:00 AM)30.25 "Hg (Nov 12, 6:00 AM)
Low37 °F (Nov 12, 6:00 AM)21% (Nov 8, 4:00 PM)29.65 "Hg (Nov 20, 3:00 PM)
Average61 °F72%29.95 "Hg
* Reported Nov 8 12:00 Noon — Nov 23 12:00 Noon, Traralgon, Weather by CustomWeather, © 2014

Note: Actual official high and low records may vary slightly from our data, if they occured in-between our weather recording intervals... More about our weather records

Advertising

Traralgon weather history for previous 24 hours

 ConditionsComfort  
Time TempWeatherWind HumidityBarometerVisibility
12:00 PM
Nov 23
75 °FMild.7 mph57%29.87 "HgN/A
10:00 AM70 °FMild.7 mph60%29.90 "HgN/A
9:00 AM66 °FPartly sunny.8 mph65%29.90 "HgN/A
7:00 AM61 °FCool.8 mph88%29.88 "HgN/A
6:00 AM59 °FPartly sunny.10 mph91%29.86 "HgN/A
4:00 AM60 °FCool.9 mph85%29.81 "HgN/A
3:00 AM61 °FCool.10 mph79%29.80 "HgN/A
1:00 AM65 °FMild.10 mph63%29.77 "HgN/A
12:00 AM67 °FMild.9 mph61%29.75 "HgN/A
10:00 PM
Nov 22
68 °FMild.3 mph62%29.72 "HgN/A
9:00 PM73 °FOvercast.3 mph51%29.72 "HgN/A
7:00 PM82 °FPleasantly warm.9 mph33%29.70 "HgN/A
6:00 PM84 °FPleasantly warm.5 mph35%29.70 "HgN/A
4:00 PM82 °FWarm.6 mph46%29.74 "HgN/A
3:00 PM79 °FPartly sunny.5 mph54%29.76 "HgN/A
1:00 PM77 °FWarm.3 mph49%29.82 "HgN/A
Weather by CustomWeather, © 2014

See weather overviewHow to use our weather pages